Location: Unspecified
(0.0000°N, 0.0000°E)
Time: 14:50:11
(UTC+00:00)

Vanguard 1 Rocket - Pass Details

Date: 15 December 2017
Orbit: 652 x 4225 km, 34.3° (Epoch: 21 July)

Event Time Altitude Azimuth Distance (km) Brightness Sun altitude
Rises 05:19:52 0° 255° (WSW) 7,634 11.6 -8.1°
Reaches altitude 10° 05:31:42 10° 226° (SW) 5,538 11.2 -5.4°
Maximum altitude 05:35:59 11° 210° (SSW) 4,941 11.1 -4.4°
Drops below altitude 10° 05:39:40 10° 194° (SSW) 4,615 11.1 -3.5°
Sets 05:46:31 0° 161° (SSE) 4,725 11.8 -2.0°
